Location: Newark
(43.6583°N, 1.6617°E)
Time: 08:56:01
(UTC+00:00)

Transit 4A - Pass Details

Date: 01 September 2019
Orbit: 865 x 979 km, 66.8° (Epoch: 24 September)

Event Time Altitude Azimuth Distance (km) Brightness Sun altitude
Rises 15:50:26 0° 211° (SSW) 3,661 11.7 27.7°
Reaches altitude 10° 15:52:59 10° 213° (SSW) 2,721 11.2 27.2°
Maximum altitude 15:59:24 83° 301° (WNW) 990 8.6 26.1°
Drops below altitude 10° 16:05:48 10° 30° (NNE) 2,719 10.0 25.0°
Sets 16:08:21 0° 32° (NNE) 3,658 10.6 24.6°
